QPF
0.02 0.02 0.04 0.05 0.04 0.04 0.04 0.04 0.04 0.04 0.03 0.02 0.01 0.01 0.01 0.01 0.01 0.02 0.02 0.01 0.01 0.02 0.02 0.02 0.03 0.03 0.04 0.04 0.03 0.03 0.03 0.03 0.02 0.01 0.01 0.01 0.01 0.02 0.02 0.03 0.03 0.03 0.03
0.02 0.03 0.03 0.03 0.04 0.05 0.05 0.04 0.04 0.03 0.03 0.02 0.02 0.02 0.02 0.02 0.02 0.01 0.01 0.01 0.01 0.01 0.01 0.02 0.02 0.03 0.03 0.04 0.04 0.03 0.03 0.02 0.03 0.02 0.02 0.02 0.02 0.02 0.02 0.02 0.03 0.03 0.03
0.01 0.02 0.02 0.02 0.03 0.03 0.03 0.03 0.03 0.03 0.03 0.02 0.02 0.01 0.01 0.02 0.03 0.03 0.02 0.02 0.01 0.01 0.01 0.01 0.02 0.02 0.02 0.03 0.03 0.03 0.03 0.03 0.03 0.03 0.03 0.02 0.02 0.02 0.02 0.03 0.03 0.04 0.04
0.00 0.01 0.01 0.01 0.01 0.02 0.02 0.02 0.03 0.03 0.03 0.02 0.02 0.01 0.01 0.01 0.02 0.03 0.03 0.03 0.02 0.02 0.02 0.02 0.02 0.02 0.02 0.02 0.03 0.03 0.04 0.04 0.04 0.04 0.04 0.04 0.03 0.03 0.04 0.04 0.05 0.05 0.04
0.00 0.00 0.01 0.01 0.01 0.01 0.01 0.02 0.02 0.03 0.02 0.02 0.02 0.02 0.02 0.02 0.02 0.02 0.03 0.03 0.03 0.03 0.02 0.02 0.02 0.02 0.03 0.03 0.04 0.04 0.04 0.05 0.06 0.06 0.06 0.04 0.03 0.04 0.05 0.06 0.06 0.05 0.05
0.00 0.00 0.00 0.01 0.01 0.01 0.01 0.01 0.02 0.03 0.03 0.03 0.02 0.02 0.01 0.02 0.03 0.03 0.03 0.03 0.04 0.04 0.03 0.02 0.02 0.02 0.03 0.03 0.04 0.04 0.05 0.05 0.06 0.06 0.05 0.04 0.04 0.05 0.05 0.06 0.06 0.06 0.05
0.00 0.01 0.01 0.01 0.00 0.00 0.01 0.01 0.01 0.02 0.03 0.03 0.03 0.02 0.02 0.01 0.02 0.03 0.03 0.03 0.03 0.03 0.04 0.03 0.03 0.02 0.03 0.03 0.03 0.04 0.04 0.05 0.05 0.05 0.05 0.04 0.03 0.04 0.05 0.06 0.05 0.05 0.04
0.00 0.01 0.01 0.01 0.01 0.01 0.01 0.01 0.01 0.01 0.02 0.03 0.03 0.03 0.02 0.02 0.02 0.02 0.03 0.03 0.03 0.02 0.03 0.03 0.03 0.03 0.03 0.03 0.03 0.03 0.04 0.04 0.04 0.04 0.04 0.04 0.03 0.04 0.06 0.07 0.07 0.05 0.04
0.00 0.01 0.01 0.01 0.02 0.01 0.01 0.01 0.01 0.01 0.01 0.01 0.02 0.03 0.03 0.02 0.02 0.02 0.03 0.02 0.02 0.02 0.03 0.03 0.03 0.03 0.03 0.04 0.04 0.04 0.04 0.03 0.03 0.04 0.04 0.04 0.05 0.05 0.05 0.07 0.08 0.06 0.05
0.01 0.01 0.01 0.01 0.01 0.01 0.01 0.01 0.01 0.01 0.01 0.01 0.02 0.03 0.02 0.02 0.02 0.03 0.03 0.02 0.02 0.02 0.02 0.02 0.03 0.03 0.03 0.04 0.04 0.04 0.04 0.03 0.03 0.04 0.03 0.03 0.04 0.04 0.04 0.05 0.06 0.04 0.04
0.01 0.01 0.01 0.01 0.01 0.01 0.01 0.01 0.01 0.01 0.01 0.02 0.02 0.02 0.03 0.02 0.02 0.03 0.03 0.03 0.03 0.02 0.02 0.02 0.02 0.03 0.03 0.03 0.03 0.04 0.04 0.04 0.04 0.04 0.04 0.04 0.04 0.04 0.05 0.05 0.04 0.03 0.03
0.01 0.01 0.01 0.01 0.01 0.01 0.01 0.01 0.02 0.02 0.02 0.02 0.02 0.02 0.03 0.04 0.04 0.04 0.04 0.03 0.03 0.03 0.02 0.02 0.02 0.03 0.03 0.03 0.04 0.03 0.04 0.04 0.04 0.05 0.05 0.05 0.04 0.04 0.05 0.04 0.04 0.03 0.03
0.02 0.02 0.02 0.02 0.02 0.02 0.02 0.02 0.02 0.02 0.02 0.02 0.02 0.02 0.03 0.04 0.04 0.05 0.05 0.04 0.03 0.03 0.03 0.03 0.03 0.04 0.04 0.03 0.03 0.03 0.03 0.04 0.03 0.03 0.03 0.03 0.04 0.04 0.06 0.05 0.04 0.04 0.04
0.02 0.02 0.02 0.02 0.02 0.02 0.03 0.03 0.02 0.02 0.02 0.02 0.02 0.02 0.02 0.03 0.04 0.05 0.05 0.05 0.04 0.04 0.04 0.05 0.06 0.06 0.05 0.04 0.03 0.03 0.03 0.02 0.03 0.03 0.03 0.03 0.03 0.04 0.05 0.05 0.05 0.04 0.05
0.02 0.02 0.02 0.02 0.02 0.02 0.03 0.03 0.03 0.03 0.03 0.03 0.03 0.03 0.03 0.03 0.03 0.04 0.05 0.05 0.05 0.05 0.05 0.05 0.06 0.06 0.05 0.04 0.04 0.03 0.03 0.03 0.03 0.03 0.03 0.04 0.04 0.04 0.04 0.05 0.05 0.05 0.05
0.02 0.02 0.02 0.02 0.02 0.03 0.03 0.03 0.03 0.03 0.03 0.03 0.03 0.03 0.03 0.03 0.03 0.04 0.05 0.05 0.06 0.07 0.07 0.06 0.05 0.04 0.04 0.03 0.03 0.03 0.03 0.03 0.03 0.03 0.03 0.03 0.04 0.04 0.04 0.04 0.04 0.04 0.04
0.02 0.02 0.02 0.02 0.03 0.04 0.04 0.03 0.02 0.03 0.04 0.03 0.03 0.03 0.03 0.03 0.03 0.04 0.04 0.05 0.06 0.06 0.06 0.06 0.05 0.04 0.04 0.04 0.04 0.04 0.03 0.03 0.03 0.03 0.03 0.03 0.03 0.04 0.04 0.04 0.04 0.04 0.04
0.02 0.01 0.01 0.02 0.03 0.04 0.04 0.03 0.02 0.03 0.03 0.03 0.03 0.03 0.03 0.03 0.03 0.03 0.03 0.04 0.05 0.05 0.04 0.04 0.04 0.04 0.04 0.04 0.03 0.03 0.03 0.03 0.04 0.04 0.03 0.03 0.03 0.04 0.04 0.04 0.04 0.04 0.04
0.01 0.01 0.02 0.03 0.04 0.04 0.03 0.03 0.02 0.03 0.03 0.03 0.03 0.03 0.04 0.03 0.03 0.03 0.03 0.03 0.03 0.03 0.03 0.03 0.03 0.03 0.03 0.03 0.04 0.04 0.03 0.03 0.03 0.03 0.04 0.04 0.04 0.04 0.04 0.04 0.04 0.04 0.03
0.01 0.02 0.02 0.02 0.02 0.02 0.02 0.02 0.02 0.02 0.03 0.03 0.02 0.03 0.03 0.03 0.03 0.04 0.04 0.03 0.03 0.03 0.03 0.03 0.03 0.03 0.03 0.03 0.04 0.04 0.04 0.04 0.04 0.04 0.04 0.04 0.04 0.04 0.04 0.03 0.03 0.03 0.03
0.01 0.01 0.01 0.01 0.01 0.01 0.01 0.01 0.01 0.01 0.02 0.02 0.02 0.02 0.03 0.03 0.02 0.02 0.02 0.02 0.02 0.03 0.03 0.03 0.03 0.03 0.03 0.03 0.03 0.03 0.03 0.03 0.03 0.03 0.04 0.04 0.04 0.04 0.03 0.03 0.03 0.03 0.04
0.01 0.01 0.01 0.01 0.01 0.01 0.01 0.01 0.01 0.01 0.01 0.01 0.01 0.02 0.02 0.02 0.02 0.02 0.02 0.02 0.02 0.02 0.02 0.03 0.03 0.03 0.03 0.03 0.03 0.02 0.02 0.02 0.02 0.03 0.03 0.03 0.04 0.04 0.04 0.04 0.04 0.04 0.04
0.01 0.01 0.01 0.01 0.01 0.01 0.01 0.01 0.01 0.01 0.01 0.01 0.01 0.01 0.02 0.02 0.02 0.02 0.02 0.02 0.02 0.02 0.02 0.02 0.02 0.03 0.03 0.03 0.03 0.03 0.02 0.02 0.02 0.02 0.02 0.03 0.03 0.03 0.03 0.03 0.04 0.04 0.04
0.01 0.01 0.01 0.01 0.01 0.01 0.01 0.01 0.01 0.01 0.01 0.01 0.01 0.01 0.01 0.01 0.01 0.01 0.01 0.01 0.02 0.02 0.02 0.02 0.02 0.02 0.02 0.02 0.02 0.02 0.02 0.02 0.02 0.03 0.03 0.03 0.03 0.03 0.03 0.03 0.03 0.03 0.03
0.01 0.01 0.01 0.01 0.01 0.01 0.01 0.01 0.01 0.01 0.01 0.01 0.01 0.01 0.01 0.01 0.01 0.01 0.01 0.02 0.02 0.02 0.02 0.02 0.02 0.02 0.02 0.02 0.02 0.02 0.02 0.02 0.02 0.02 0.03 0.03 0.03 0.03 0.03 0.03 0.03 0.03 0.03
0.01 0.01 0.01 0.01 0.01 0.01 0.01 0.01 0.01 0.01 0.01 0.01 0.01 0.01 0.01 0.01 0.01 0.01 0.02 0.02 0.02 0.02 0.02 0.02 0.02 0.02 0.02 0.02 0.02 0.02 0.03 0.03 0.02 0.02 0.03 0.03 0.03 0.02 0.02 0.02 0.02 0.02 0.03
MSLP
1020.97 1020.51 1020.16 1019.95 1019.93 1020.11 1020.46 1020.94 1021.50 1022.07 1022.61 1023.06 1023.40 1023.63 1023.77 1023.84 1023.88 1023.93 1024.00 1024.11 1024.26 1024.44 1024.63 1024.81 1024.95 1025.02 1025.01 1024.88 1024.63 1024.24 1023.71 1023.05 1022.27 1021.42 1020.52 1019.63 1018.79 1018.02 1017.35 1016.77 1016.26 1015.77 1015.26
1021.47 1020.91 1020.46 1020.14 1020.02 1020.09 1020.34 1020.73 1021.22 1021.73 1022.23 1022.65 1022.98 1023.21 1023.34 1023.41 1023.44 1023.46 1023.48 1023.54 1023.62 1023.74 1023.87 1024.02 1024.16 1024.28 1024.34 1024.33 1024.23 1024.00 1023.65 1023.15 1022.52 1021.78 1020.96 1020.11 1019.27 1018.47 1017.74 1017.08 1016.49 1015.93 1015.37
1022.07 1021.46 1020.92 1020.52 1020.29 1020.24 1020.37 1020.64 1021.00 1021.41 1021.82 1022.18 1022.47 1022.68 1022.82 1022.89 1022.92 1022.92 1022.93 1022.94 1022.97 1023.03 1023.11 1023.22 1023.35 1023.48 1023.61 1023.70 1023.73 1023.67 1023.49 1023.17 1022.72 1022.12 1021.42 1020.64 1019.83 1019.02 1018.25 1017.54 1016.87 1016.23 1015.60
1022.77 1022.13 1021.55 1021.07 1020.74 1020.56 1020.54 1020.65 1020.86 1021.13 1021.41 1021.68 1021.91 1022.10 1022.23 1022.31 1022.36 1022.38 1022.39 1022.39 1022.39 1022.41 1022.45 1022.52 1022.62 1022.76 1022.91 1023.07 1023.21 1023.28 1023.25 1023.10 1022.81 1022.37 1021.79 1021.11 1020.37 1019.59 1018.81 1018.06 1017.34 1016.65 1015.95
1023.55 1022.90 1022.29 1021.75 1021.32 1021.02 1020.84 1020.78 1020.81 1020.90 1021.04 1021.20 1021.35 1021.50 1021.62 1021.73 1021.81 1021.86 1021.90 1021.91 1021.92 1021.91 1021.92 1021.96 1022.03 1022.14 1022.30 1022.49 1022.68 1022.84 1022.92 1022.90 1022.75 1022.45 1022.01 1021.44 1020.78 1020.07 1019.33 1018.59 1017.86 1017.13 1016.40
1024.39 1023.75 1023.12 1022.53 1022.01 1021.58 1021.25 1021.01 1020.86 1020.77 1020.75 1020.78 1020.85 1020.94 1021.05 1021.17 1021.29 1021.39 1021.47 1021.52 1021.53 1021.53 1021.52 1021.52 1021.56 1021.64 1021.77 1021.95 1022.15 1022.35 1022.49 1022.56 1022.51 1022.32 1022.00 1021.56 1021.01 1020.39 1019.73 1019.04 1018.34 1017.64 1016.91
1025.24 1024.62 1023.98 1023.36 1022.76 1022.22 1021.75 1021.35 1021.02 1020.76 1020.59 1020.48 1020.45 1020.48 1020.56 1020.68 1020.82 1020.96 1021.07 1021.15 1021.19 1021.20 1021.18 1021.16 1021.16 1021.19 1021.28 1021.43 1021.61 1021.80 1021.96 1022.07 1022.08 1021.99 1021.78 1021.45 1021.02 1020.52 1019.97 1019.39 1018.77 1018.13 1017.45
1026.09 1025.49 1024.85 1024.20 1023.55 1022.92 1022.33 1021.78 1021.30 1020.90 1020.57 1020.34 1020.20 1020.15 1020.18 1020.27 1020.40 1020.55 1020.67 1020.77 1020.82 1020.83 1020.80 1020.77 1020.74 1020.74 1020.79 1020.89 1021.03 1021.19 1021.34 1021.46 1021.51 1021.48 1021.36 1021.14 1020.84 1020.47 1020.05 1019.60 1019.10 1018.57 1017.98
1026.92 1026.33 1025.70 1025.03 1024.34 1023.64 1022.96 1022.31 1021.71 1021.18 1020.73 1020.38 1020.13 1019.99 1019.93 1019.96 1020.04 1020.14 1020.25 1020.32 1020.37 1020.37 1020.33 1020.28 1020.24 1020.22 1020.23 1020.30 1020.40 1020.53 1020.67 1020.78 1020.86 1020.87 1020.82 1020.69 1020.51 1020.28 1020.00 1019.68 1019.33 1018.93 1018.46
1027.74 1027.16 1026.52 1025.84 1025.12 1024.38 1023.64 1022.91 1022.23 1021.60 1021.05 1020.59 1020.23 1019.98 1019.82 1019.74 1019.72 1019.74 1019.78 1019.80 1019.80 1019.78 1019.73 1019.67 1019.62 1019.59 1019.60 1019.65 1019.74 1019.86 1019.98 1020.10 1020.19 1020.24 1020.24 1020.19 1020.11 1019.99 1019.84 1019.66 1019.44 1019.17 1018.83
1028.55 1027.97 1027.32 1026.62 1025.88 1025.12 1024.34 1023.57 1022.84 1022.14 1021.51 1020.96 1020.49 1020.12 1019.83 1019.62 1019.47 1019.37 1019.29 1019.22 1019.15 1019.08 1019.00 1018.94 1018.89 1018.88 1018.90 1018.96 1019.06 1019.19 1019.32 1019.45 1019.55 1019.63 1019.68 1019.69 1019.68 1019.65 1019.60 1019.53 1019.43 1019.28 1019.05
1029.37 1028.78 1028.11 1027.40 1026.64 1025.85 1025.06 1024.27 1023.50 1022.77 1022.08 1021.45 1020.89 1020.40 1019.98 1019.62 1019.31 1019.06 1018.83 1018.64 1018.47 1018.33 1018.22 1018.14 1018.10 1018.10 1018.16 1018.25 1018.38 1018.54 1018.69 1018.84 1018.97 1019.08 1019.16 1019.21 1019.25 1019.28 1019.30 1019.30 1019.28 1019.21 1019.08
1030.20 1029.59 1028.90 1028.16 1027.38 1026.58 1025.77 1024.98 1024.20 1023.45 1022.72 1022.04 1021.40 1020.80 1020.24 1019.73 1019.26 1018.84 1018.46 1018.13 1017.85 1017.62 1017.45 1017.34 1017.30 1017.33 1017.41 1017.55 1017.71 1017.90 1018.09 1018.27 1018.42 1018.55 1018.65 1018.73 1018.80 1018.86 1018.91 1018.95 1018.98 1018.97 1018.91
1031.04 1030.40 1029.68 1028.91 1028.11 1027.30 1026.49 1025.69 1024.91 1024.15 1023.41 1022.68 1021.98 1021.28 1020.61 1019.97 1019.35 1018.77 1018.23 1017.75 1017.35 1017.02 1016.78 1016.63 1016.57 1016.59 1016.69 1016.85 1017.04 1017.26 1017.48 1017.68 1017.85 1018.00 1018.12 1018.21 1018.29 1018.36 1018.43 1018.49 1018.53 1018.55 1018.53
1031.85 1031.18 1030.44 1029.65 1028.83 1028.00 1027.19 1026.39 1025.61 1024.85 1024.10 1023.35 1022.59 1021.84 1021.07 1020.32 1019.57 1018.85 1018.17 1017.56 1017.03 1016.60 1016.27 1016.05 1015.94 1015.94 1016.02 1016.17 1016.36 1016.59 1016.81 1017.02 1017.21 1017.37 1017.50 1017.61 1017.69 1017.77 1017.84 1017.91 1017.96 1018.00 1018.02
1032.57 1031.91 1031.15 1030.34 1029.51 1028.68 1027.86 1027.07 1026.29 1025.53 1024.77 1024.01 1023.23 1022.42 1021.60 1020.76 1019.92 1019.09 1018.30 1017.58 1016.93 1016.39 1015.96 1015.65 1015.47 1015.39 1015.41 1015.51 1015.67 1015.86 1016.07 1016.27 1016.45 1016.62 1016.76 1016.88 1016.98 1017.08 1017.16 1017.24 1017.32 1017.38 1017.42
1033.18 1032.52 1031.78 1030.98 1030.15 1029.32 1028.50 1027.71 1026.94 1026.18 1025.42 1024.64 1023.85 1023.02 1022.16 1021.27 1020.36 1019.47 1018.59 1017.78 1017.03 1016.39 1015.85 1015.44 1015.14 1014.97 1014.89 1014.90 1014.98 1015.11 1015.26 1015.42 1015.59 1015.75 1015.90 1016.04 1016.18 1016.30 1016.42 1016.54 1016.64 1016.74 1016.81
1033.60 1032.98 1032.27 1031.50 1030.69 1029.88 1029.08 1028.29 1027.52 1026.76 1026.00 1025.22 1024.42 1023.58 1022.70 1021.79 1020.86 1019.92 1019.00 1018.12 1017.30 1016.56 1015.93 1015.40 1014.98 1014.67 1014.47 1014.36 1014.32 1014.35 1014.42 1014.53 1014.66 1014.81 1014.97 1015.13 1015.30 1015.48 1015.65 1015.82 1015.98 1016.12 1016.25
1033.80 1033.25 1032.60 1031.88 1031.12 1030.34 1029.56 1028.78 1028.02 1027.26 1026.49 1025.71 1024.91 1024.07 1023.19 1022.28 1021.35 1020.40 1019.46 1018.55 1017.68 1016.87 1016.15 1015.51 1014.97 1014.52 1014.17 1013.92 1013.75 1013.65 1013.62 1013.65 1013.73 1013.86 1014.02 1014.21 1014.42 1014.64 1014.88 1015.11 1015.34 1015.55 1015.74
1033.77 1033.31 1032.74 1032.09 1031.39 1030.65 1029.90 1029.14 1028.39 1027.63 1026.86 1026.08 1025.28 1024.45 1023.58 1022.69 1021.77 1020.84 1019.91 1018.99 1018.10 1017.25 1016.46 1015.73 1015.08 1014.51 1014.02 1013.62 1013.31 1013.08 1012.93 1012.87 1012.88 1012.96 1013.11 1013.31 1013.55 1013.83 1014.12 1014.41 1014.70 1014.98 1015.24
1033.52 1033.14 1032.66 1032.09 1031.46 1030.78 1030.07 1029.34 1028.60 1027.84 1027.08 1026.29 1025.49 1024.67 1023.83 1022.97 1022.09 1021.19 1020.29 1019.39 1018.51 1017.65 1016.82 1016.03 1015.29 1014.61 1014.00 1013.47 1013.02 1012.66 1012.40 1012.23 1012.16 1012.18 1012.29 1012.48 1012.73 1013.02 1013.35 1013.69 1014.04 1014.37 1014.68
1033.08 1032.77 1032.37 1031.88 1031.32 1030.70 1030.04 1029.34 1028.61 1027.86 1027.10 1026.32 1025.53 1024.72 1023.90 1023.08 1022.24 1021.39 1020.54 1019.68 1018.83 1017.98 1017.15 1016.33 1015.54 1014.79 1014.09 1013.45 1012.88 1012.40 1012.02 1011.75 1011.58 1011.52 1011.57 1011.71 1011.93 1012.22 1012.55 1012.91 1013.27 1013.64 1013.99
1032.47 1032.22 1031.88 1031.46 1030.96 1030.40 1029.78 1029.11 1028.40 1027.67 1026.91 1026.14 1025.36 1024.57 1023.78 1022.99 1022.20 1021.41 1020.61 1019.82 1019.01 1018.20 1017.39 1016.58 1015.77 1014.98 1014.22 1013.50 1012.84 1012.26 1011.77 1011.38 1011.11 1010.95 1010.91 1010.98 1011.14 1011.37 1011.67 1012.01 1012.37 1012.75 1013.12
1031.76 1031.53 1031.23 1030.85 1030.40 1029.88 1029.30 1028.67 1027.98 1027.26 1026.52 1025.75 1024.98 1024.21 1023.45 1022.70 1021.95 1021.22 1020.48 1019.75 1019.01 1018.25 1017.48 1016.69 1015.90 1015.09 1014.30 1013.53 1012.81 1012.14 1011.56 1011.07 1010.69 1010.42 1010.27 1010.24 1010.31 1010.47 1010.70 1010.99 1011.32 1011.68 1012.05
1030.97 1030.74 1030.45 1030.10 1029.68 1029.19 1028.64 1028.03 1027.37 1026.67 1025.93 1025.18 1024.43 1023.67 1022.93 1022.21 1021.51 1020.82 1020.14 1019.46 1018.78 1018.08 1017.36 1016.61 1015.84 1015.05 1014.25 1013.46 1012.69 1011.97 1011.31 1010.73 1010.25 1009.87 1009.61 1009.47 1009.43 1009.50 1009.65 1009.87 1010.15 1010.48 1010.83
1030.13 1029.88 1029.59 1029.24 1028.83 1028.37 1027.84 1027.25 1026.61 1025.92 1025.20 1024.46 1023.71 1022.97 1022.24 1021.54 1020.86 1020.21 1019.57 1018.94 1018.31 1017.67 1017.00 1016.30 1015.56 1014.80 1014.01 1013.22 1012.43 1011.67 1010.95 1010.30 1009.73 1009.26 1008.90 1008.65 1008.52 1008.48 1008.55 1008.70 1008.93 1009.21 1009.55
Thickness
5422 5422 5421 5421 5420 5420 5421 5422 5423 5423 5424 5424 5424 5424 5424 5424 5423 5423 5422 5422 5422 5422 5421 5421 5420 5419 5420 5420 5421 5422 5424 5426 5430 5435 5436 5438 5439 5440 5441 5442 5444 5445 5447
5410 5410 5410 5409 5408 5408 5409 5409 5410 5411 5412 5413 5413 5413 5413 5413 5413 5412 5412 5411 5412 5412 5411 5411 5411 5410 5410 5411 5411 5413 5414 5415 5418 5422 5425 5426 5428 5429 5431 5432 5433 5434 5436
5398 5398 5398 5397 5396 5396 5396 5397 5397 5399 5399 5400 5401 5402 5402 5402 5401 5401 5401 5401 5401 5401 5401 5401 5400 5400 5401 5401 5401 5403 5403 5404 5407 5410 5414 5416 5417 5418 5419 5420 5421 5423 5425
5386 5386 5385 5384 5383 5383 5383 5384 5385 5386 5387 5388 5388 5389 5389 5390 5390 5390 5390 5390 5390 5390 5389 5389 5389 5390 5390 5390 5391 5392 5392 5394 5396 5399 5402 5405 5406 5406 5407 5409 5411 5412 5413
5373 5374 5373 5371 5370 5370 5370 5371 5372 5373 5374 5375 5375 5376 5377 5377 5378 5378 5378 5379 5379 5379 5378 5378 5378 5378 5378 5378 5379 5380 5381 5382 5384 5387 5390 5393 5395 5395 5396 5397 5398 5400 5401
5361 5361 5360 5358 5357 5357 5357 5357 5358 5360 5361 5362 5363 5363 5364 5365 5366 5366 5367 5368 5368 5367 5367 5367 5367 5367 5366 5366 5367 5367 5368 5370 5373 5374 5377 5379 5382 5383 5384 5384 5385 5387 5390
5348 5348 5347 5346 5345 5344 5344 5344 5345 5346 5347 5349 5350 5351 5352 5353 5353 5354 5354 5356 5356 5356 5356 5356 5355 5355 5354 5355 5355 5355 5356 5357 5360 5362 5365 5368 5369 5371 5371 5372 5374 5376 5379
5336 5335 5334 5333 5333 5332 5332 5332 5333 5334 5335 5337 5338 5339 5340 5341 5341 5342 5342 5343 5344 5344 5344 5344 5343 5343 5343 5343 5344 5344 5345 5347 5348 5350 5354 5356 5356 5357 5357 5359 5361 5363 5365
5323 5322 5321 5320 5320 5320 5321 5321 5321 5322 5323 5325 5326 5327 5328 5329 5329 5329 5330 5331 5332 5332 5332 5331 5330 5331 5332 5331 5332 5334 5335 5336 5336 5337 5340 5342 5343 5344 5345 5346 5348 5351 5355
5310 5309 5308 5308 5308 5308 5309 5309 5310 5310 5312 5312 5314 5315 5316 5317 5317 5317 5317 5319 5321 5320 5320 5319 5319 5319 5319 5319 5320 5321 5323 5325 5325 5326 5327 5329 5331 5332 5333 5334 5336 5338 5341
5296 5296 5296 5296 5295 5296 5296 5296 5297 5298 5299 5300 5302 5304 5304 5305 5306 5306 5306 5307 5308 5308 5308 5308 5308 5307 5307 5307 5308 5310 5312 5312 5312 5313 5315 5317 5319 5320 5321 5322 5323 5325 5328
5282 5283 5283 5283 5283 5284 5283 5284 5284 5285 5287 5289 5290 5292 5293 5293 5294 5295 5295 5296 5297 5297 5297 5297 5296 5296 5296 5296 5296 5297 5297 5297 5298 5300 5303 5306 5307 5309 5310 5310 5312 5313 5315
5268 5268 5269 5269 5270 5270 5271 5272 5272 5273 5275 5277 5279 5281 5282 5282 5282 5283 5283 5284 5285 5285 5286 5285 5285 5284 5284 5284 5284 5284 5283 5284 5286 5288 5291 5294 5295 5297 5298 5299 5301 5302 5304
5255 5255 5255 5255 5257 5257 5258 5259 5260 5262 5264 5265 5267 5269 5269 5270 5270 5271 5272 5272 5272 5272 5273 5273 5273 5272 5272 5272 5271 5270 5271 5272 5273 5276 5278 5280 5282 5284 5286 5288 5290 5292 5294
5243 5243 5243 5243 5244 5245 5246 5247 5248 5250 5251 5253 5255 5256 5257 5258 5259 5260 5261 5261 5261 5261 5260 5260 5260 5260 5260 5260 5259 5259 5259 5260 5261 5263 5265 5267 5270 5272 5274 5276 5277 5279 5282
5232 5232 5232 5232 5232 5233 5234 5236 5237 5238 5239 5241 5243 5244 5246 5246 5247 5248 5249 5250 5250 5249 5248 5248 5248 5247 5248 5248 5248 5248 5248 5249 5249 5250 5252 5255 5258 5260 5262 5263 5265 5267 5270
5218 5219 5219 5219 5219 5220 5221 5223 5225 5227 5227 5228 5230 5232 5233 5234 5235 5237 5237 5237 5237 5236 5235 5236 5235 5234 5234 5235 5236 5236 5237 5237 5237 5238 5240 5242 5245 5247 5249 5251 5253 5255 5257
5205 5206 5206 5207 5207 5208 5209 5209 5211 5213 5215 5216 5217 5218 5219 5220 5221 5223 5223 5223 5223 5222 5222 5223 5222 5222 5222 5223 5223 5224 5225 5225 5226 5227 5228 5230 5232 5234 5237 5239 5240 5242 5244
5193 5193 5193 5194 5194 5195 5195 5196 5197 5198 5200 5202 5203 5204 5204 5205 5206 5207 5208 5208 5208 5208 5208 5208 5208 5209 5210 5210 5211 5212 5213 5214 5215 5215 5217 5218 5220 5221 5224 5226 5227 5228 5230
5180 5180 5180 5180 5181 5182 5183 5183 5184 5185 5187 5188 5189 5191 5191 5191 5192 5193 5193 5193 5193 5193 5193 5194 5195 5196 5197 5198 5199 5201 5202 5203 5204 5205 5206 5207 5208 5210 5212 5214 5215 5216 5218
5169 5169 5167 5168 5168 5169 5170 5171 5172 5172 5173 5174 5175 5176 5178 5179 5180 5180 5180 5180 5180 5180 5181 5182 5183 5184 5185 5186 5188 5190 5191 5193 5194 5194 5195 5196 5197 5199 5201 5203 5204 5204 5206
5157 5157 5157 5157 5157 5158 5158 5159 5159 5160 5161 5162 5163 5164 5165 5165 5166 5167 5167 5167 5167 5167 5168 5169 5171 5173 5174 5176 5177 5179 5180 5182 5184 5184 5185 5186 5187 5188 5190 5191 5192 5193 5195
5147 5147 5146 5146 5146 5147 5147 5148 5148 5149 5149 5150 5151 5152 5152 5153 5154 5154 5155 5155 5155 5156 5156 5158 5160 5161 5163 5164 5166 5168 5170 5172 5173 5174 5175 5176 5177 5179 5180 5181 5182 5184 5185
5138 5137 5137 5137 5136 5137 5138 5138 5138 5138 5139 5139 5139 5140 5141 5141 5142 5142 5143 5143 5144 5145 5146 5147 5149 5151 5152 5154 5156 5158 5160 5162 5163 5164 5165 5166 5168 5169 5170 5172 5173 5174 5175
5128 5128 5127 5127 5127 5127 5128 5128 5128 5128 5128 5128 5129 5129 5130 5131 5131 5131 5132 5133 5133 5135 5136 5137 5139 5141 5143 5145 5146 5148 5150 5152 5153 5154 5155 5157 5159 5160 5161 5161 5162 5163 5164
5119 5118 5117 5117 5117 5117 5117 5118 5118 5118 5118 5118 5118 5119 5119 5120 5121 5121 5122 5123 5124 5125 5126 5128 5130 5132 5133 5135 5137 5139 5141 5143 5145 5146 5147 5149 5150 5151 5151 5151 5152 5153 5154